Regional Weather Roundup
Issued by NWS

Home | Current Version | Previous Version | Graphics & Text | Print | Product List | Glossary On
Versions: 1 2 3 4 5 6 7 8 9 10 11 12 13 14 15 16 17 18 19 20 21 22 23 24 25 26 27 28
000
ASUS45 KSLC 230910
RWRUT

UTAH REGIONAL WEATHER ROUNDUP
NATIONAL WEATHER SERVICE SALT LAKE CITY UT
300 AM MDT WED APR 23 2014

UTZ001>011-023>025-231000-

NORTHERN UTAH

CITY           SKY/WX    TMP DP  RH WIND       PRES   REMARKS
HILL AFB       CLOUDY    39  36  91 W12       29.88S WCI  32
LOGAN          CLOUDY    38  33  82 CALM      29.88R
OGDEN          CLOUDY    40  35  83 W12       29.87S WCI  33
PROVO AIRPORT  CLOUDY    41  34  75 CALM      29.90S
SALT LAKE CITY LGT RAIN  41  41 100 W13G26    29.90R
VERNAL         MOCLDY    45  28  51 SW9       29.71R
WENDOVER       PTCLDY    41  19  42 NW13      29.94R
HEBER CITY     CLOUDY    36  32  87 E5        29.85F WCI  32
WEST JORDAN    CLOUDY    37  37 100 NW16G25   29.90S WCI  28

$$

UTZ012>022-026-027-231000-

SOUTHERN UTAH

CITY           SKY/WX    TMP DP  RH WIND       PRES   REMARKS
BRYCE CANYON   PTCLDY    33  22  63 NW10      29.89F WCI  25
CEDAR CITY     PTCLDY    38  23  55 E3        29.90F
MILFORD        PTCLDY    38  27  64 N10       29.90F WCI  31
MOAB/CYNLANDS  PTCLDY    56  26  31 NW22G29   29.69R
PRICE          PTCLDY    42  22  44 NW16G28   29.80S
ST GEORGE      PTSUNNY   57  18  21 S5        29.82S

$$

REGIONAL REPORTS     COLORADO/ARIZONA

CITY           SKY/WX    TMP DP  RH WIND       PRES   REMARKS
CRAIG, CO      LGT RAIN  49  38  65 W10       29.72R
GRAND JUNCTION CLOUDY    62  23  22 W22       29.65R
RIFLE          CLOUDY    65  23  20 SW22G30   29.64F
MONTROSE       CLOUDY    63  26  24 SW20G28   29.74S
CORTEZ         CLEAR     57  28  33 SW13      29.81F
PAGE, AZ       CLEAR     61  10  13 NW3       29.77S
GRAND CANYON   PTCLDY    31  15  52 CALM      29.91F
KINGMAN        PTCLDY    46   2  16 SW6       29.81F
FLAGSTAFF      CLEAR     48  17  29 W14G23    29.91F

$$

REGIONAL REPORTS    NEVADA/IDAHO/WYOMING

CITY           SKY/WX    TMP DP  RH WIND       PRES   REMARKS
LAS VEGAS, NV  MOCLDY    66   5   9 NW10      29.76R
ELY            CLOUDY    28  18  66 NW8       29.95F WCI  20
ELKO           PTCLDY    30  27  88 CALM      29.96F
POCATELLO, ID  CLOUDY    37  31  78 SW18G29   29.84R WCI  27
BURLEY         PTCLDY    35  29  78 W22G29    29.85F WCI  23
EVANSTON, WY   CLOUDY    30  28  92 SW17      29.81F WCI  18
ROCK SPRINGS   CLOUDY    36  29  75 W12       29.78S WCI  28

$$



USA.gov is the U.S. government's official web portal to all federal, state and local government web resources and services.